COSMOS 1275 DEB

Satellite information

Favourite Embed

Satellite Type and Status

DEBRISIN ORBIT

Key statistics

Satellite COSMOS 1275 DEB at a glance.

Uptime

16210

Days in orbit

Revolutions

≈ 13.8

Per day

Orbit

LEO

Low Earth Orbit

Inclination

82.9

Latest

Satellite identification and parameters

Extended collection of information and parameters for COSMOS 1275 DEB.

Object identification

Identified? True

Debris? True

Object name: COSMOS 1275 DEB

International designator: 1981-053PQ

Object number (NORAD): 42104

Object ID (CCSDS): 42104

Country: COMMONWEALTH OF INDEPENDENT STATES (CIS)

Current information (Y/N): Y

RCS size: SMALL

Orbital parameters

Period: 104.215 minutes

Inclination: 82.8744 deg

SMA: 7335.787 km

Apoapsis: 988.677 km

Periapsis: 926.626 km

RAAN: 256.6989 deg

Eccentricy: 0.00422935

Argument of periapsis: 13.1725 deg

Mean anomaly: 347.0528 deg

Mean motion: 13.81760327 rev/day

Mean motion (dot): 0.00000572 rev/day2

B* drag term: 0.00051686551 1/REarth

Two-line elements (TLE)

Creation date: Oct. 16, 2025, 6:34 p.m.

Reference frame: TEME

Reference center: EARTH

Epoch: Oct. 16, 2025, 4:07 a.m. UTC

TLE line 0: 0 COSMOS 1275 DEB

TLE line 1: 1 42104U 81053PQ 25289.17184218 .00000572 00000-0 51687-3 0 9990

TLE line 2: 2 42104 82.8744 256.6989 0042294 13.1725 347.0528 13.81760327600374

Live tracking on map

Real-time ground track for satellite COSMOS 1275 DEB.

In-orbit conjunctions

A list of the most updated potential collisions computed for object COSMOS 1275 DEB.

Target Orbit TCA Probability of collision Miss distance Type
SL-16 DEB LEO 2025-09-09 11:52:16 0.0001152986 191.0 (m) DEBRIS
SL-8 R/B LEO 2024-07-25 06:28:25 0.0001548263 833.0 (m) ROCKET BODY

Associated space launch

Navigation satellite providing location information for the Tsiklon-B navigation system

COSMOS 1275 DEB was lifted into orbit during the mission ‘Kosmos-3M | Parus 27’, on board a Kosmos-3M space rocket.

The launch took place on June 4, 1981, 3:41 p.m. from 132/2.

For more information about the launch, click the button.

Launch to space Kosmos-3M | Parus 27
Kosmos-3M | Parus 27

Agency: N/A

Status: Launch Successful

Launch date: June 4, 1981, 3:41 p.m. UTC

Rocket: Kosmos-3M

Launch pad: 132/2

Location: Plesetsk Cosmodrome, Russian Federation

...

Latest news about this satellite

There are no fresh news available about this satellite. Check back as we update our databases every day.


Newsletter sign-up

Weekly statistics, charts and insights to help you stay on top of the space industry.